Lid_Strength_Index
3 3 4 4 5 6 6 6 8 4 3 9 9 12 10 9 8 7 8 7 8 9 9 10 9 9 8 6 6 8 8 10 12 10 7 7 9 10 11 13 14 14 14 15
3 3 4 4 5 6 8 8 6 2 3 10 10 9 9 9 9 9 8 8 8 7 9 11 8 8 5 5 6 8 8 11 14 12 10 9 10 9 9 10 12 14 16 16
3 3 3 4 4 5 7 7 8 5 4 5 7 9 9 9 7 9 8 8 7 8 9 8 9 9 6 6 6 4 6 11 12 13 12 10 10 9 9 10 13 13 13 13
2 3 3 4 4 5 6 5 7 6 9 7 7 7 8 9 9 7 8 9 8 9 11 9 9 8 8 7 5 7 8 12 12 10 9 8 8 9 8 11 10 12 11 12
2 3 3 3 4 5 5 6 7 6 7 6 7 8 9 8 8 7 8 9 8 7 9 8 9 8 9 9 7 9 8 12 12 12 9 9 9 8 8 8 9 10 10 12
3 3 3 3 4 5 5 4 4 6 7 7 8 8 7 7 6 7 6 7 8 8 7 6 6 7 6 8 9 10 10 11 13 15 10 10 12 10 9 9 8 9 12 10
3 3 2 2 3 4 6 4 6 7 9 7 8 7 6 7 7 8 6 5 7 5 4 4 5 6 7 6 7 8 11 12 12 14 13 18 11 8 8 8 8 9 9 8
3 3 3 3 3 3 6 4 5 6 9 7 7 7 7 7 7 7 7 5 4 4 5 9 10 10 10 8 7 8 8 11 14 16 16 12 10 9 9 11 11 8 8 8
3 3 3 3 3 3 5 4 3 6 8 8 6 7 6 8 9 8 7 5 4 4 7 9 14 14 11 12 10 7 8 10 12 14 17 18 11 7 6 7 14 8 7 8
3 4 3 4 3 3 5 5 2 6 7 5 5 7 8 6 7 9 8 7 7 5 9 11 12 12 9 13 13 12 11 12 14 14 15 12 8 6 6 14 14 8 7 7
4 4 4 4 4 4 5 6 3 6 8 7 5 5 6 7 6 9 7 8 8 8 11 11 11 11 10 11 10 11 12 13 13 13 15 16 7 7 11 10 8 7 7 7
4 4 4 4 4 4 4 7 4 4 8 8 5 5 5 5 5 7 6 8 8 8 10 9 10 11 11 12 15 10 14 13 14 13 14 9 7 8 7 6 7 7 7 6
4 4 4 4 4 5 5 6 6 5 7 6 5 5 2 2 4 4 8 6 5 7 5 8 9 12 10 14 13 12 10 8 12 11 10 9 8 6 6 6 6 5 5 5
4 4 4 5 5 5 5 7 5 5 7 9 5 1 2 0 2 3 3 4 4 5 5 8 8 10 8 10 10 11 9 9 11 10 9 8 7 6 6 6 5 5 4 5
4 4 4 4 5 5 5 5 5 4 7 9 8 5 3 2 1 2 3 4 5 6 7 7 9 7 8 8 8 10 8 10 11 12 8 9 8 6 5 6 5 5 5 5
4 4 4 4 4 5 6 6 4 3 4 7 9 4 3 2 2 3 3 3 4 5 6 7 6 5 8 10 11 8 7 6 7 9 6 6 6 5 4 5 4 4 4 5
4 3 3 3 4 5 6 6 4 3 3 7 8 8 4 2 3 3 4 3 4 5 6 7 7 7 7 9 11 7 6 6 6 5 6 7 6 7 5 4 4 4 4 4
4 3 3 3 3 5 6 3 3 3 5 6 9 8 7 3 6 6 4 5 5 6 6 6 7 7 7 11 8 6 5 5 5 5 5 6 5 5 5 4 4 5 5 4
4 4 3 3 4 4 3 2 2 3 4 8 8 9 11 4 5 5 5 5 8 5 7 7 7 8 11 8 7 7 6 6 6 5 5 5 5 6 5 5 5 5 5 5
4 5 5 6 2 1 1 4 5 5 5 5 8 5 8 5 6 7 8 6 8 10 8 6 8 9 6 6 5 5 5 5 4 6 7 6 6 6 5 6 5 4 5 4
4 5 6 3 1 3 5 7 8 7 8 6 6 6 8 4 8 9 7 9 9 11 9 9 10 10 7 5 5 4 4 4 4 4 4 4 5 5 5 5 4 4 4 4
6 6 5 4 4 5 8 9 7 8 10 6 7 7 6 6 4 8 8 10 9 12 7 9 11 8 6 5 5 4 4 4 4 3 4 4 4 4 4 4 4 4 3 3
4 5 6 6 6 11 11 12 10 10 7 6 6 8 6 6 5 8 9 11 12 7 11 11 10 8 6 6 5 5 4 4 4 3 3 3 4 3 4 4 4 3 3 3
6 7 13 10 10 9 8 9 8 6 6 6 6 7 8 7 9 8 11 9 9 13 13 13 10 8 6 5 5 5 5 4 4 4 3 3 4 4 3 3 3 3 4 4
7 7 12 9 7 5 5 5 5 5 5 5 6 6 7 8 10 9 10 11 13 12 13 10 8 6 6 6 5 5 5 5 5 4 4 4 4 4 4 3 3 3 4 6
7 7 9 6 6 7 6 5 6 4 5 5 6 8 10 10 10 11 12 12 14 12 9 7 6 6 5 5 5 5 4 5 4 4 4 4 4 4 5 4 4 4 4 3
8 8 5 7 6 6 6 5 5 3 5 8 8 11 12 9 11 12 10 12 10 8 7 6 5 5 5 5 4 4 4 4 4 4 4 4 4 5 5 5 4 4 4 4